Weather History for Washington, GA

Change the Weather History Date:

Saturday, May 11, 2013

  Actual Average (KDBN) Record (KDBN)
Temperature  
Mean Temperature 68 °F -  
Max Temperature 78 °F 82 °F 98 °F (1955)
Min Temperature 59 °F 53 °F 44 °F (1977)
Cooling Degree Days 4    
Growing Degree Days 18 (Base 50)    
Moisture  
Dew Point 60 °F    
Average Humidity 74    
Maximum Humidity 100    
Minimum Humidity 47    
Precipitation  
Precipitation 0.00 in - - ()
Sea Level Pressure  
Sea Level Pressure 29.95 in    
Wind  
Wind Speed 4 mph (WSW)    
Max Wind Speed 13 mph    
Max Gust Speed 17 mph    
Visibility 7 miles    
Events Rain    
Averages and records for this station are not official NWS values.
T = Trace of Precipitation, MM = Missing Value Source: NWS Daily Summary

Daily Weather History Graph

Daily Weather History Graph

Search for Another Location

Airport:

Trip Planner

Search our weather history database for the weather conditions in past years. The results will help you decide how hot, cold, wet, or windy it might be!

Date:

Astronomy

May. 11, 2013 Rise Set
Actual Time 6:33 AM EDT 8:22 PM EDT
Civil Twilight 6:05 AM EDT 8:49 PM EDT
Nautical Twilight 5:32 AM EDT 9:22 PM EDT
Astronomical Twilight 4:57 AM EDT 9:58 PM EDT
Moon 7:41 AM EDT (5/11) 10:00 PM EDT (5/11)
Length of Visible Light 14h 44m
Length of Day
13h 49m
Waxing Crescent, 3% of the Moon is Illuminated
May 11
Waxing Crescent
May 18
First Quarter
May 25
Full
May 31
Last Quarter
Jun 8
New

Hourly Weather History & Observations

Time (EDT) Temp. Dew Point Humidity Pressure Visibility Wind Dir Wind Speed Gust Speed Precip Events Conditions
12:15 AM 64.4 °F 60.8 °F 88% 30.01 in 7.0 mi SW 3.5 mph - N/A   Clear
12:35 AM 64.4 °F 60.8 °F 88% 30.01 in 7.0 mi SW 3.5 mph - N/A   Clear
12:55 AM 64.4 °F 60.8 °F 88% 30.01 in 7.0 mi SW 4.6 mph - N/A   Clear
1:15 AM 64.4 °F 59.0 °F 83% 30.01 in 7.0 mi Calm Calm - N/A   Clear
1:35 AM 64.4 °F 59.0 °F 83% 30.00 in 7.0 mi WSW 3.5 mph - N/A   Clear
1:55 AM 64.4 °F 59.0 °F 83% 29.99 in 7.0 mi WSW 3.5 mph - N/A   Clear
2:15 AM 64.4 °F 59.0 °F 83% 29.98 in 7.0 mi Calm Calm - N/A   Clear
2:35 AM 64.4 °F 59.0 °F 83% 29.98 in 7.0 mi Calm Calm - N/A   Clear
2:55 AM 62.6 °F 60.8 °F 94% 29.97 in 7.0 mi Calm Calm - N/A   Scattered Clouds
3:15 AM 64.4 °F 60.8 °F 88% 29.97 in 7.0 mi SSW 3.5 mph - N/A   Scattered Clouds
3:35 AM 64.4 °F 60.8 °F 88% 29.97 in 7.0 mi Calm Calm - N/A   Scattered Clouds
3:55 AM 62.6 °F 60.8 °F 94% 29.96 in 7.0 mi Calm Calm - N/A   Clear
4:15 AM 62.6 °F 59.0 °F 88% 29.96 in 7.0 mi Calm Calm - N/A   Clear
4:35 AM 62.6 °F 60.8 °F 94% 29.96 in 7.0 mi Calm Calm - N/A   Clear
4:55 AM 60.8 °F 60.8 °F 100% 29.96 in 7.0 mi Calm Calm - N/A   Clear
5:15 AM 60.8 °F 60.8 °F 100% 29.95 in 7.0 mi Calm Calm - N/A   Clear
5:35 AM 60.8 °F 60.8 °F 100% 29.95 in 7.0 mi Calm Calm - N/A   Clear
5:55 AM 60.8 °F 59.0 °F 94% 29.95 in 7.0 mi Calm Calm - N/A   Clear
6:15 AM 59.0 °F 59.0 °F 100% 29.95 in 7.0 mi Calm Calm - N/A   Clear
6:35 AM 60.8 °F 59.0 °F 94% 29.95 in 7.0 mi Calm Calm - N/A   Clear
6:55 AM 60.8 °F 59.0 °F 94% 29.95 in 5.0 mi Calm Calm - N/A   Clear
7:15 AM 59.0 °F 59.0 °F 100% 29.96 in 5.0 mi SW 3.5 mph - N/A   Clear
7:35 AM 60.8 °F 59.0 °F 94% 29.96 in 5.0 mi WSW 3.5 mph - N/A   Clear
7:55 AM 64.4 °F 60.8 °F 88% 29.96 in 5.0 mi Calm Calm - N/A   Clear
8:15 AM 64.4 °F 59.0 °F 83% 29.97 in 7.0 mi WSW 4.6 mph - N/A   Clear
8:35 AM 66.2 °F 60.8 °F 83% 29.97 in 7.0 mi West 5.8 mph - N/A   Clear
8:55 AM 69.8 °F 60.8 °F 73% 29.97 in 5.0 mi SW 3.5 mph - N/A   Haze
9:15 AM 71.6 °F 62.6 °F 73% 29.98 in 7.0 mi West 5.8 mph - N/A   Clear
9:35 AM 73.4 °F 60.8 °F 65% 29.98 in 7.0 mi WNW 9.2 mph - N/A   Clear
9:55 AM 73.4 °F 60.8 °F 65% 29.98 in 7.0 mi West 9.2 mph - N/A   Clear
10:15 AM 73.4 °F 59.0 °F 61% 29.97 in 7.0 mi West 9.2 mph - N/A   Clear
10:35 AM 73.4 °F 59.0 °F 61% 29.97 in 7.0 mi WNW 8.1 mph 16.1 mph N/A   Scattered Clouds
10:55 AM 73.4 °F 57.2 °F 57% 29.96 in 7.0 mi WNW 6.9 mph - N/A   Scattered Clouds
11:15 AM 73.4 °F 57.2 °F 57% 29.96 in 7.0 mi West 5.8 mph - N/A   Scattered Clouds
11:35 AM 77.0 °F 59.0 °F 54% 29.96 in 7.0 mi West 12.7 mph - N/A   Scattered Clouds
11:55 AM 77.0 °F 59.0 °F 54% 29.96 in 7.0 mi West 8.1 mph - N/A   Scattered Clouds
12:15 PM 77.0 °F 59.0 °F 54% 29.96 in 7.0 mi West 10.4 mph - N/A   Scattered Clouds
12:35 PM 77.0 °F 57.2 °F 50% 29.97 in 7.0 mi West 9.2 mph - N/A   Scattered Clouds
12:55 PM 78.8 °F 59.0 °F 51% 29.97 in 7.0 mi West 8.1 mph - N/A   Scattered Clouds
1:15 PM 78.8 °F 59.0 °F 51% 29.96 in 7.0 mi WSW 9.2 mph - N/A   Clear
1:35 PM 78.8 °F 59.0 °F 51% 29.95 in 7.0 mi West 9.2 mph - N/A   Clear
1:55 PM 78.8 °F 59.0 °F 51% 29.94 in 7.0 mi WSW 6.9 mph - N/A   Unknown
2:15 PM 78.8 °F 57.2 °F 47% 29.94 in 7.0 mi WSW 9.2 mph - N/A   Unknown
2:35 PM 78.8 °F 57.2 °F 47% 29.94 in 7.0 mi SW 8.1 mph 16.1 mph N/A   Unknown
2:55 PM 78.8 °F 59.0 °F 51% 29.94 in 7.0 mi WSW 5.8 mph - N/A   Unknown
3:15 PM 78.8 °F 59.0 °F 51% 29.92 in 7.0 mi SW 11.5 mph - N/A   Clear
3:35 PM 78.8 °F 59.0 °F 51% 29.93 in 7.0 mi WSW 9.2 mph - N/A   Scattered Clouds
3:55 PM 78.8 °F 59.0 °F 51% 29.92 in 7.0 mi WSW 10.4 mph 16.1 mph N/A   Scattered Clouds
4:15 PM 78.8 °F 60.8 °F 54% 29.91 in 7.0 mi WSW 9.2 mph - N/A   Clear
4:35 PM 78.8 °F 60.8 °F 54% 29.92 in 7.0 mi WSW 9.2 mph - N/A   Clear
4:55 PM 78.8 °F 60.8 °F 54% 29.91 in 7.0 mi WSW 10.4 mph - N/A   Scattered Clouds
5:15 PM 77.0 °F 60.8 °F 57% 29.91 in 7.0 mi WSW 6.9 mph - N/A   Clear
5:35 PM 77.0 °F 60.8 °F 57% 29.90 in 7.0 mi SW 9.2 mph - N/A   Scattered Clouds
5:55 PM 77.0 °F 60.8 °F 57% 29.89 in 7.0 mi SW 6.9 mph - N/A   Scattered Clouds
6:15 PM 73.4 °F 60.8 °F 65% 29.89 in 7.0 mi WSW 3.5 mph - N/A   Clear
6:35 PM 73.4 °F 60.8 °F 65% 29.90 in 7.0 mi SW 5.8 mph - N/A   Clear
6:55 PM 73.4 °F 60.8 °F 65% 29.90 in 7.0 mi SW 4.6 mph - N/A   Clear
7:15 PM 73.4 °F 62.6 °F 69% 29.88 in 7.0 mi SSW 3.5 mph - N/A   Clear
7:35 PM 73.4 °F 62.6 °F 69% 29.89 in 7.0 mi WSW 4.6 mph - N/A   Clear
7:55 PM 73.4 °F 62.6 °F 69% 29.89 in 7.0 mi SW 4.6 mph - N/A   Clear
8:15 PM 73.4 °F 62.6 °F 69% 29.90 in 7.0 mi WSW 8.1 mph - N/A   Clear
8:35 PM 73.4 °F 62.6 °F 69% 29.91 in 7.0 mi West 6.9 mph - N/A   Clear
8:55 PM 71.6 °F 59.0 °F 64% 29.93 in 7.0 mi NW 6.9 mph - N/A   Mostly Cloudy
9:15 PM 68.0 °F 55.4 °F 64% 29.93 in 7.0 mi NW 9.2 mph 17.3 mph N/A Rain Light Rain
9:35 PM 64.4 °F 62.6 °F 94% 29.92 in 10.0 mi Calm Calm - N/A Rain Light Rain
9:55 PM 64.4 °F 62.6 °F 94% 29.92 in 10.0 mi Calm Calm - N/A   Scattered Clouds
10:15 PM 64.4 °F 62.6 °F 94% 29.92 in 7.0 mi Calm Calm - N/A   Clear
10:35 PM 64.4 °F 62.6 °F 94% 29.92 in 7.0 mi Calm Calm - N/A   Clear
10:55 PM 64.4 °F 62.6 °F 94% 29.92 in 7.0 mi Calm Calm - N/A   Clear
11:15 PM 64.4 °F 62.6 °F 94% 29.93 in 7.0 mi NNW 4.6 mph - N/A   Scattered Clouds
11:35 PM 64.4 °F 64.4 °F 100% 29.92 in 7.0 mi WNW 4.6 mph - N/A   Scattered Clouds
11:55 PM 64.4 °F 64.4 °F 100% 29.92 in 7.0 mi WNW 3.5 mph - N/A   Scattered Clouds